SCP
0 0 0 0 0 0 0 0 0 0 0 0 0 0 0 0 0 0 0 0 0 0 0 0 0 0 0 0 0 0 0 0 0 0 0 0 0 0 0 0 0 0 0
0 0 0 0 0 0 0 0 0 0 0 0 0 0 0 0 0 0 0 0 0 0 0 0 0 0 0 0 0 0 0 0 0 0 0 0 0 0 0 0 0 0 0
0 0 0 0 0 0 0 0 0 0 0 0 0 0 0 0 0 0 0 0 0 0 0 0 0 0 0 0 0 0 0 0 0 0 0 0 0 0 0 0 0 0 0
0 0 0 0 0 0 0 0 0 0 0 0 0 0 0 0 0 0 0 0 0 0 0 0 0 0 0 0 0 0 0 0 0 0 0 0 0 0 0 0 0 0 0
0 0 0 0 0 0 0 0 0 0 0 0 0 0 0 0 0 0 0 0 0 0 0 0 0 0 0 0 0 0 0 0 0 0 0 0 0 0 0 0 0 0 0
0 0 0 0 0 0 0 0 0 0 0 0 0 0 0 0 0 0 0 0 0 0 0 0 0 0 0 0 0 0 0 0 0 0 0 0 0 0 0 0 0 0 0
0 0 0 0 0 0 0 0 0 0 0 0 0 0 0 0 0 0 0 0 0 0 0 0 0 0 0 0 0 0 0 0 0 0 0 0 0 0 0 0 0 0 0
0 0 0 0 0 0 0 0 0 0 0 0 0 0 0 0 0 0 0 0 0 0 0 0 0 0 0 0 0 0 0 0 0 0 0 0 0 0 0 0 0 0 0
0 0 0 0 0 0 0 0 0 0 0 0 0 0 0 0 0 0 0 0 0 0 0 0 0 0 0 0 0 0 0 0 0 0 0 0 0 0 0 0 0 0 0
0 0 0 0 0 0 0 0 0 0 0 0 0 0 0 0 0 0 0 0 0 0 0 0 0 0 0 0 0 0 0 0 0 0 0 0 0 0 0 0 0 0 0
0 0 0 0 0 0 0 0 0 0 0 0 0 0 0 0 0 0 0 0 0 0 0 0 0 0 0 0 0 0 0 0 0 0 0 0 0 0 0 0 0 0 0
0 0 0 0 0 0 0 0 0 0 0 0 0 0 0 0 0 0 0 0 0 0 0 0 0 0 0 0 0 0 0 0 0 0 0 0 0 0 0 0 0 0 0
0 0 0 0 0 0 0 0 0 0 0 0 0 0 0 0 0 0 0 0 0 0 0 0 0 0 0 0 0 0 0 0 0 0 0 0 0 0 0 0 0 0 0
0 0 0 0 0 0 0 0 0 0 0 0 0 0 0 0 0 0 0 0 0 0 0 0 0 0 0 0 0 0 0 0 0 0 0 0 0 0 0 0 0 0 0
0 0 0 0 0 0 0 0 0 0 0 0 0 0 0 0 0 0 0 0 0 0 0 0 0 0 0 0 0 0 0 0 0 0 0 0 0 0 0 0 0 0 0
0 0 0 0 0 0 0 0 0 0 0 0 0 0 0 0 0 0 0 0 0 0 0 0 0 0 0 0 0 0 0 0 0 0 0 0 0 0 0 0 0 0 0
0 0 0 0 0 0 0 0 0 0 0 0 0 0 0 0 0 0 0 0 0 0 0 0 0 0 0 0 0 0 0 0 0 0 0 0 0 0 0 0 0 0 0
0 0 0 0 0 0 0 0 0 0 0 0 0 0 0 0 0 0 0 0 0 0 0 0 0 0 0 0 0 0 0 0 0 0 0 0 0 0 0 0 0 0 0
0 0 0 0 0 0 0 0 0 0 0 0 0 0 0 0 0 0 0 0 0 0 0 0 0 0 0 0 0 0 0 0 0 0 0 0 0 0 0 0 0 0 0
0 0 0 0 0 0 0 0 0 0 0 0 0 0 0 0 0 0 0 0 0 0 0 0 0 0 0 0 0 0 0 0 0 0 0 0 0 0 0 0 0 0 0
0 0 0 0 0 0 0 0 0 0 0 0 0 0 0 0 0 0 0 0 0 0 0 0 0 0 0 0 0 0 0 0 0 0 0 0 0 0 0 0 0 0 0
0 0 0 0 0 0 0 0 0 0 0 0 0 0 0 0 0 0 0 0 0 0 0 0 0 0 0 0 0 0 0 0 0 0 0 0 0 0 0 0 0 0 0
0 0 0 0 0 0 0 0 0 0 0 0 0 0 0 0 0 0 0 0 0 0 0 0 0 0 0 0 0 0 0 0 0 0 0 0 0 0 0 0 0 0 0
0 0 0 0 0 0 0 0 0 0 0 0 0 0 0 0 0 0 0 0 0 0 0 0 0 0 0 0 0 0 0 0 0 0 0 0 0 0 0 0 0 0 0
0 0 0 0 0 0 0 0 0 0 0 0 0 0 0 0 0 0 0 0 0 0 0 0 0 0 0 0 0 0 0 0 0 0 0 0 0 0 0 0 0 0 0
0 0 0 0 0 0 0 0 0 0 0 0 0 0 0 0 0 0 0 0 0 0 0 0 0 0 0 0 0 0 0 0 0 0 0 0 0 0 0 0 0 0 0
Wind_Speed_500mb
86 90 96 98 93 88 85 83 82 77 73 66 59 58 57 58 59 60 59 55 51 46 42 40 40 46 44 39 38 37 35 33 34 46 40 38 31 27 25 31 29 28 29
76 83 90 89 93 91 87 81 80 76 72 67 61 57 59 61 61 60 57 50 47 47 44 43 44 44 42 37 36 35 35 34 31 40 37 35 28 26 29 24 29 26 27
70 81 84 86 87 90 86 79 75 71 69 69 65 63 64 64 60 58 54 52 49 51 47 51 53 47 46 39 38 34 35 38 38 34 33 33 29 32 26 26 24 22 25
64 72 77 79 77 81 78 76 73 70 68 70 69 68 65 61 59 53 52 50 51 49 50 51 49 41 46 41 37 37 39 35 31 30 32 29 30 23 23 21 20 26 32
55 61 70 71 69 74 76 75 71 66 64 63 63 62 60 57 54 52 51 51 51 53 47 45 40 39 45 34 28 24 21 22 23 27 26 27 19 15 14 19 24 36 37
52 53 65 60 59 66 67 65 65 64 65 64 60 56 55 53 52 52 50 50 51 47 41 39 37 37 24 21 17 17 19 18 15 16 15 10 9 10 17 23 35 37 43
54 59 66 64 65 69 67 65 64 64 61 58 55 53 51 49 50 52 52 45 43 43 43 39 32 23 23 25 27 21 12 13 18 17 16 13 9 12 24 27 30 37 45
59 59 60 61 63 64 66 66 64 60 58 55 52 51 50 51 52 54 49 47 43 42 36 30 25 24 29 30 28 19 11 8 14 14 12 11 13 21 27 31 35 42 48
67 63 61 60 61 65 67 64 60 58 56 53 51 50 49 49 47 46 44 41 38 34 32 31 30 33 35 30 23 16 11 13 14 14 13 11 21 27 32 38 45 48 49
75 70 66 66 65 67 64 62 58 55 52 51 52 50 46 46 47 46 44 40 39 38 37 37 32 29 29 22 18 14 12 14 13 13 15 21 28 37 42 42 42 43 45
76 71 69 67 67 64 63 59 57 56 53 52 51 49 47 42 42 43 39 38 37 39 37 33 29 29 25 17 13 11 11 10 11 16 24 29 34 35 35 36 37 38 39
72 71 70 69 67 65 61 60 58 56 55 55 55 53 49 46 46 43 42 40 37 32 29 26 29 27 22 16 13 11 12 15 18 22 28 30 31 31 34 36 37 38 39
71 73 74 72 71 69 66 63 60 61 61 62 60 59 55 53 54 51 50 45 40 35 30 29 28 25 23 20 17 15 15 20 21 22 24 28 30 34 36 37 38 39 38
75 78 78 78 76 70 66 64 64 65 65 63 63 63 61 64 63 59 53 46 41 38 35 31 29 27 22 18 17 15 14 15 16 19 22 26 30 32 35 37 38 40 39
77 82 84 83 80 76 71 69 66 64 63 64 65 62 63 66 62 52 46 46 41 37 35 32 32 30 25 21 18 12 8 11 16 20 22 25 29 31 34 36 38 39 41
87 91 91 90 86 81 78 73 66 59 55 52 50 50 53 50 53 51 48 44 40 38 35 33 33 31 26 19 14 5 6 12 16 19 23 27 30 32 34 35 38 42 44
90 96 97 96 93 89 84 80 78 66 56 52 51 52 51 53 56 55 52 47 43 42 37 38 37 31 22 15 10 2 4 9 15 21 26 28 31 33 36 40 43 45 48
82 93 98 100 97 94 90 85 81 82 82 73 65 61 60 57 59 57 55 54 52 47 42 38 35 29 23 16 10 6 7 9 14 18 23 28 33 37 40 42 45 47 49
79 90 91 94 98 95 90 88 85 82 81 80 76 69 65 62 60 59 56 54 51 49 47 42 36 28 22 18 14 10 7 7 11 17 24 30 34 38 42 45 47 48 50
74 86 91 94 95 96 94 91 87 86 86 85 84 81 76 73 75 73 64 58 54 51 47 40 33 26 21 17 11 8 6 7 13 20 25 31 37 41 43 44 46 47 46
66 81 87 91 95 98 97 93 92 92 93 90 89 88 82 78 73 69 67 62 55 51 45 40 33 26 20 14 9 6 7 12 17 23 29 35 38 41 43 44 44 43 44
68 76 85 89 94 97 97 95 94 92 91 88 91 85 81 77 74 72 66 60 55 48 44 39 32 26 18 9 2 3 8 14 21 28 33 37 39 40 42 42 42 41 41
67 75 82 88 92 95 95 98 100 99 95 95 90 92 87 81 77 72 65 58 53 49 43 36 28 21 13 6 2 7 13 19 24 30 35 38 39 41 42 41 41 40 40
67 73 78 86 92 94 95 97 100 100 97 98 97 90 86 82 76 69 64 61 55 47 39 31 24 17 10 6 7 12 17 22 28 33 37 38 38 39 39 39 39 38 39
63 73 77 84 88 90 94 100 104 100 97 96 95 92 89 82 74 69 64 58 50 42 34 26 21 14 9 8 12 16 22 28 33 36 36 37 38 37 36 37 37 36 36
63 72 76 77 84 91 97 103 104 99 98 98 95 90 85 77 72 66 60 53 45 36 28 23 17 11 9 12 17 23 28 32 33 36 38 37 35 35 37 37 36 37 36
Wind_Direction_500mb
248 247 245 243 242 242 244 244 241 242 240 239 237 234 233 236 239 242 246 251 251 251 248 254 259 262 266 265 262 268 272 268 269 273 284 298 295 295 302 300 316 321 311
245 241 240 244 241 241 242 241 237 237 237 236 236 234 236 237 238 240 244 245 251 251 252 252 258 263 265 251 257 261 264 262 263 269 279 283 291 289 291 286 292 298 305
250 241 241 240 238 237 237 235 232 233 233 231 231 234 236 238 239 241 245 243 245 250 249 257 260 257 262 253 258 259 258 260 262 260 269 275 272 285 275 289 295 305 319
241 240 237 238 237 235 231 228 227 231 231 230 230 235 236 237 239 239 238 239 239 245 246 252 251 256 256 256 260 257 255 261 259 261 260 263 273 272 288 306 323 327 323
241 244 241 237 233 228 224 223 225 228 230 231 230 231 232 232 231 230 232 232 239 235 237 249 246 245 260 254 246 250 243 254 260 258 253 256 267 289 307 320 315 325 326
254 239 238 235 228 226 223 221 222 222 224 226 229 227 227 226 226 224 226 227 232 232 234 236 237 257 236 232 234 221 220 234 238 239 242 259 272 289 314 319 319 323 325
255 246 237 231 223 221 220 219 221 221 221 219 221 223 223 223 224 221 222 223 217 221 227 233 235 227 222 207 198 190 209 249 241 231 222 237 260 308 319 320 319 314 313
253 246 237 230 226 222 217 214 214 216 217 216 217 217 217 219 219 220 212 214 216 222 224 215 224 204 200 195 199 197 203 239 225 218 223 246 286 312 319 316 314 310 310
250 241 235 228 222 218 214 211 209 209 209 209 209 211 211 211 213 213 212 206 204 207 197 188 191 196 202 207 211 204 211 215 222 221 225 275 305 309 310 311 312 313 316
245 237 228 221 215 214 211 207 205 204 205 205 206 205 207 208 206 202 193 196 187 182 180 186 193 199 210 208 208 222 231 217 218 239 270 294 300 305 310 312 314 314 314
241 230 222 217 211 208 207 204 202 201 202 206 204 196 190 188 184 179 183 184 182 180 186 189 201 203 203 214 217 219 217 227 247 269 286 297 302 305 312 318 322 324 323
234 222 214 209 207 205 206 204 202 205 202 198 192 186 182 179 181 178 174 179 180 188 193 199 202 204 201 214 225 215 229 253 267 279 290 298 307 316 322 324 327 328 327
223 215 210 206 206 205 205 206 205 203 201 197 193 190 184 179 178 180 184 184 186 192 195 198 206 205 205 207 213 218 242 265 281 294 305 313 320 323 326 327 327 327 328
219 214 211 209 206 206 206 209 208 205 201 201 195 192 187 183 186 188 190 191 190 192 195 195 201 200 201 208 222 240 262 279 296 308 317 324 326 328 329 332 332 330 329
225 218 214 212 209 206 208 210 210 212 212 207 203 200 194 192 191 192 194 193 193 193 195 197 201 199 200 207 217 227 263 302 319 325 326 328 331 336 337 335 333 331 330
228 220 216 213 210 208 207 203 206 212 210 207 210 208 195 199 193 188 190 188 185 190 193 195 198 203 201 201 215 230 312 326 332 340 344 345 342 339 335 330 331 330 331
230 223 217 214 211 208 207 206 200 195 197 198 201 202 201 195 188 188 186 185 187 189 192 198 202 200 198 197 203 202 354 1 4 359 350 342 334 332 333 336 334 331 330
234 229 221 217 214 212 210 207 204 199 190 189 193 202 198 196 193 190 191 191 187 188 194 198 200 195 188 184 172 119 69 29 5 353 341 333 331 334 333 330 328 326 326
236 231 226 220 216 213 210 207 204 201 197 192 190 193 197 198 193 195 195 197 192 191 188 192 195 191 182 169 154 125 87 34 2 348 340 334 332 329 327 325 323 323 322
236 231 227 222 217 213 210 207 204 201 198 195 191 193 187 193 192 191 191 189 188 190 189 188 185 178 173 162 145 111 66 14 358 349 339 330 325 323 321 319 319 320 321
239 230 227 223 220 216 213 209 207 203 199 196 197 199 199 196 194 190 188 186 188 189 185 181 176 171 172 165 145 87 27 357 348 339 331 324 320 319 319 318 318 320 321
234 229 225 223 220 217 214 212 210 206 202 203 201 198 200 197 193 191 189 188 187 185 180 176 172 174 171 165 137 11 1 346 339 331 325 320 318 318 317 317 318 320 323
230 226 224 221 221 217 213 211 208 205 203 204 200 198 196 193 192 190 187 186 184 181 179 173 171 176 173 187 265 325 342 338 333 325 319 317 317 317 318 317 318 319 320
229 228 225 221 219 218 215 210 208 207 203 200 198 196 194 190 191 188 184 182 180 180 179 174 172 180 194 234 292 323 330 331 324 319 315 316 316 317 316 314 315 316 319
232 229 226 224 222 219 215 210 207 205 202 198 194 191 189 187 187 185 182 180 178 178 178 178 183 195 219 268 300 314 322 322 318 317 317 316 314 315 313 311 310 313 314
231 230 229 226 223 221 216 211 206 202 197 193 190 187 187 184 183 182 181 179 177 176 182 192 199 216 252 285 305 315 317 318 315 313 313 312 313 313 310 308 309 309 309
Wind_Speed_850mb
86 90 96 98 93 88 85 83 82 77 73 66 59 58 57 58 59 60 59 55 51 46 42 40 40 46 44 39 38 37 35 33 34 46 40 38 31 27 25 31 29 28 29
76 83 90 89 93 91 87 81 80 76 72 67 61 57 59 61 61 60 57 50 47 47 44 43 44 44 42 37 36 35 35 34 31 40 37 35 28 26 29 24 29 26 27
70 81 84 86 87 90 86 79 75 71 69 69 65 63 64 64 60 58 54 52 49 51 47 51 53 47 46 39 38 34 35 38 38 34 33 33 29 32 26 26 24 22 25
64 72 77 79 77 81 78 76 73 70 68 70 69 68 65 61 59 53 52 50 51 49 50 51 49 41 46 41 37 37 39 35 31 30 32 29 30 23 23 21 20 26 32
55 61 70 71 69 74 76 75 71 66 64 63 63 62 60 57 54 52 51 51 51 53 47 45 40 39 45 34 28 24 21 22 23 27 26 27 19 15 14 19 24 36 37
52 53 65 60 59 66 67 65 65 64 65 64 60 56 55 53 52 52 50 50 51 47 41 39 37 37 24 21 17 17 19 18 15 16 15 10 9 10 17 23 35 37 43
54 59 66 64 65 69 67 65 64 64 61 58 55 53 51 49 50 52 52 45 43 43 43 39 32 23 23 25 27 21 12 13 18 17 16 13 9 12 24 27 30 37 45
59 59 60 61 63 64 66 66 64 60 58 55 52 51 50 51 52 54 49 47 43 42 36 30 25 24 29 30 28 19 11 8 14 14 12 11 13 21 27 31 35 42 48
67 63 61 60 61 65 67 64 60 58 56 53 51 50 49 49 47 46 44 41 38 34 32 31 30 33 35 30 23 16 11 13 14 14 13 11 21 27 32 38 45 48 49
75 70 66 66 65 67 64 62 58 55 52 51 52 50 46 46 47 46 44 40 39 38 37 37 32 29 29 22 18 14 12 14 13 13 15 21 28 37 42 42 42 43 45
76 71 69 67 67 64 63 59 57 56 53 52 51 49 47 42 42 43 39 38 37 39 37 33 29 29 25 17 13 11 11 10 11 16 24 29 34 35 35 36 37 38 39
72 71 70 69 67 65 61 60 58 56 55 55 55 53 49 46 46 43 42 40 37 32 29 26 29 27 22 16 13 11 12 15 18 22 28 30 31 31 34 36 37 38 39
71 73 74 72 71 69 66 63 60 61 61 62 60 59 55 53 54 51 50 45 40 35 30 29 28 25 23 20 17 15 15 20 21 22 24 28 30 34 36 37 38 39 38
75 78 78 78 76 70 66 64 64 65 65 63 63 63 61 64 63 59 53 46 41 38 35 31 29 27 22 18 17 15 14 15 16 19 22 26 30 32 35 37 38 40 39
77 82 84 83 80 76 71 69 66 64 63 64 65 62 63 66 62 52 46 46 41 37 35 32 32 30 25 21 18 12 8 11 16 20 22 25 29 31 34 36 38 39 41
87 91 91 90 86 81 78 73 66 59 55 52 50 50 53 50 53 51 48 44 40 38 35 33 33 31 26 19 14 5 6 12 16 19 23 27 30 32 34 35 38 42 44
90 96 97 96 93 89 84 80 78 66 56 52 51 52 51 53 56 55 52 47 43 42 37 38 37 31 22 15 10 2 4 9 15 21 26 28 31 33 36 40 43 45 48
82 93 98 100 97 94 90 85 81 82 82 73 65 61 60 57 59 57 55 54 52 47 42 38 35 29 23 16 10 6 7 9 14 18 23 28 33 37 40 42 45 47 49
79 90 91 94 98 95 90 88 85 82 81 80 76 69 65 62 60 59 56 54 51 49 47 42 36 28 22 18 14 10 7 7 11 17 24 30 34 38 42 45 47 48 50
74 86 91 94 95 96 94 91 87 86 86 85 84 81 76 73 75 73 64 58 54 51 47 40 33 26 21 17 11 8 6 7 13 20 25 31 37 41 43 44 46 47 46
66 81 87 91 95 98 97 93 92 92 93 90 89 88 82 78 73 69 67 62 55 51 45 40 33 26 20 14 9 6 7 12 17 23 29 35 38 41 43 44 44 43 44
68 76 85 89 94 97 97 95 94 92 91 88 91 85 81 77 74 72 66 60 55 48 44 39 32 26 18 9 2 3 8 14 21 28 33 37 39 40 42 42 42 41 41
67 75 82 88 92 95 95 98 100 99 95 95 90 92 87 81 77 72 65 58 53 49 43 36 28 21 13 6 2 7 13 19 24 30 35 38 39 41 42 41 41 40 40
67 73 78 86 92 94 95 97 100 100 97 98 97 90 86 82 76 69 64 61 55 47 39 31 24 17 10 6 7 12 17 22 28 33 37 38 38 39 39 39 39 38 39
63 73 77 84 88 90 94 100 104 100 97 96 95 92 89 82 74 69 64 58 50 42 34 26 21 14 9 8 12 16 22 28 33 36 36 37 38 37 36 37 37 36 36
63 72 76 77 84 91 97 103 104 99 98 98 95 90 85 77 72 66 60 53 45 36 28 23 17 11 9 12 17 23 28 32 33 36 38 37 35 35 37 37 36 37 36
Wind_Direction_850mb
248 247 245 243 242 242 244 244 241 242 240 239 237 234 233 236 239 242 246 251 251 251 248 254 259 262 266 265 262 268 272 268 269 273 284 298 295 295 302 300 316 321 311
245 241 240 244 241 241 242 241 237 237 237 236 236 234 236 237 238 240 244 245 251 251 252 252 258 263 265 251 257 261 264 262 263 269 279 283 291 289 291 286 292 298 305
250 241 241 240 238 237 237 235 232 233 233 231 231 234 236 238 239 241 245 243 245 250 249 257 260 257 262 253 258 259 258 260 262 260 269 275 272 285 275 289 295 305 319
241 240 237 238 237 235 231 228 227 231 231 230 230 235 236 237 239 239 238 239 239 245 246 252 251 256 256 256 260 257 255 261 259 261 260 263 273 272 288 306 323 327 323
241 244 241 237 233 228 224 223 225 228 230 231 230 231 232 232 231 230 232 232 239 235 237 249 246 245 260 254 246 250 243 254 260 258 253 256 267 289 307 320 315 325 326
254 239 238 235 228 226 223 221 222 222 224 226 229 227 227 226 226 224 226 227 232 232 234 236 237 257 236 232 234 221 220 234 238 239 242 259 272 289 314 319 319 323 325
255 246 237 231 223 221 220 219 221 221 221 219 221 223 223 223 224 221 222 223 217 221 227 233 235 227 222 207 198 190 209 249 241 231 222 237 260 308 319 320 319 314 313
253 246 237 230 226 222 217 214 214 216 217 216 217 217 217 219 219 220 212 214 216 222 224 215 224 204 200 195 199 197 203 239 225 218 223 246 286 312 319 316 314 310 310
250 241 235 228 222 218 214 211 209 209 209 209 209 211 211 211 213 213 212 206 204 207 197 188 191 196 202 207 211 204 211 215 222 221 225 275 305 309 310 311 312 313 316
245 237 228 221 215 214 211 207 205 204 205 205 206 205 207 208 206 202 193 196 187 182 180 186 193 199 210 208 208 222 231 217 218 239 270 294 300 305 310 312 314 314 314
241 230 222 217 211 208 207 204 202 201 202 206 204 196 190 188 184 179 183 184 182 180 186 189 201 203 203 214 217 219 217 227 247 269 286 297 302 305 312 318 322 324 323
234 222 214 209 207 205 206 204 202 205 202 198 192 186 182 179 181 178 174 179 180 188 193 199 202 204 201 214 225 215 229 253 267 279 290 298 307 316 322 324 327 328 327
223 215 210 206 206 205 205 206 205 203 201 197 193 190 184 179 178 180 184 184 186 192 195 198 206 205 205 207 213 218 242 265 281 294 305 313 320 323 326 327 327 327 328
219 214 211 209 206 206 206 209 208 205 201 201 195 192 187 183 186 188 190 191 190 192 195 195 201 200 201 208 222 240 262 279 296 308 317 324 326 328 329 332 332 330 329
225 218 214 212 209 206 208 210 210 212 212 207 203 200 194 192 191 192 194 193 193 193 195 197 201 199 200 207 217 227 263 302 319 325 326 328 331 336 337 335 333 331 330
228 220 216 213 210 208 207 203 206 212 210 207 210 208 195 199 193 188 190 188 185 190 193 195 198 203 201 201 215 230 312 326 332 340 344 345 342 339 335 330 331 330 331
230 223 217 214 211 208 207 206 200 195 197 198 201 202 201 195 188 188 186 185 187 189 192 198 202 200 198 197 203 202 354 1 4 359 350 342 334 332 333 336 334 331 330
234 229 221 217 214 212 210 207 204 199 190 189 193 202 198 196 193 190 191 191 187 188 194 198 200 195 188 184 172 119 69 29 5 353 341 333 331 334 333 330 328 326 326
236 231 226 220 216 213 210 207 204 201 197 192 190 193 197 198 193 195 195 197 192 191 188 192 195 191 182 169 154 125 87 34 2 348 340 334 332 329 327 325 323 323 322
236 231 227 222 217 213 210 207 204 201 198 195 191 193 187 193 192 191 191 189 188 190 189 188 185 178 173 162 145 111 66 14 358 349 339 330 325 323 321 319 319 320 321
239 230 227 223 220 216 213 209 207 203 199 196 197 199 199 196 194 190 188 186 188 189 185 181 176 171 172 165 145 87 27 357 348 339 331 324 320 319 319 318 318 320 321
234 229 225 223 220 217 214 212 210 206 202 203 201 198 200 197 193 191 189 188 187 185 180 176 172 174 171 165 137 11 1 346 339 331 325 320 318 318 317 317 318 320 323
230 226 224 221 221 217 213 211 208 205 203 204 200 198 196 193 192 190 187 186 184 181 179 173 171 176 173 187 265 325 342 338 333 325 319 317 317 317 318 317 318 319 320
229 228 225 221 219 218 215 210 208 207 203 200 198 196 194 190 191 188 184 182 180 180 179 174 172 180 194 234 292 323 330 331 324 319 315 316 316 317 316 314 315 316 319
232 229 226 224 222 219 215 210 207 205 202 198 194 191 189 187 187 185 182 180 178 178 178 178 183 195 219 268 300 314 322 322 318 317 317 316 314 315 313 311 310 313 314
231 230 229 226 223 221 216 211 206 202 197 193 190 187 187 184 183 182 181 179 177 176 182 192 199 216 252 285 305 315 317 318 315 313 313 312 313 313 310 308 309 309 309